• In Uzbekistan
  • List of Countries
  • For 7 days
  • Water Temperature
  • Satellite Maps
  • Weather Map
  • Weather Widgets
  • user-avatar
    Login

    Hourly Weather Glasgow

    Today, 22 June, Friday

    Time Temperature Precipitation Wind Pressure Humidity
    00:00 +6°C° 0 mm 8 mps 770 mmHg 79%
    01:00 +6°C° 0 mm 8 mps 770 mmHg 79%
    02:00 +6°C° 0 mm 8 mps 770 mmHg 80%
    03:00 +6°C° 0 mm 8 mps 770 mmHg 81%
    04:00 +7°C° 0 mm 8 mps 770 mmHg 79%
    05:00 +7°C° 0 mm 8 mps 770 mmHg 77%
    06:00 +9°C° 0 mm 7 mps 770 mmHg 74%
    07:00 +10°C° 0 mm 7 mps 770 mmHg 71%
    08:00 +11°C° 0 mm 7 mps 770 mmHg 68%
    09:00 +13°C° 0 mm 6 mps 770 mmHg 65%
    10:00 +14°C° 0 mm 6 mps 770 mmHg 65%
    11:00 +15°C° 0 mm 6 mps 770 mmHg 65%
    12:00 +16°C° 0 mm 6 mps 770 mmHg 64%
    13:00 +16°C° 0 mm 5 mps 770 mmHg 64%
    14:00 +17°C° 0 mm 5 mps 769 mmHg 63%
    15:00 +17°C° 0 mm 5 mps 769 mmHg 63%
    16:00 +18°C° 0 mm 4 mps 769 mmHg 64%
    17:00 +17°C° 0 mm 4 mps 769 mmHg 65%
    18:00 +17°C° 0 mm 3 mps 769 mmHg 66%
    19:00 +16°C° 0 mm 3 mps 769 mmHg 71%
    20:00 +14°C° 0 mm 2 mps 769 mmHg 76%
    21:00 +12°C° 0 mm 2 mps 769 mmHg 81%
    22:00 +10°C° 0 mm 3 mps 769 mmHg 83%
    23:00 +10°C° 0 mm 3 mps 769 mmHg 85%

    Tomorrow, 23 June, Saturday

    Time Temperature Precipitation Wind Pressure Humidity
    00:00 +9°C° 0 mm 3 mps 769 mmHg 87%
    01:00 +9°C° 0 mm 3 mps 769 mmHg 85%
    02:00 +8°C° 0 mm 4 mps 768 mmHg 84%
    03:00 +8°C° 0 mm 4 mps 768 mmHg 82%
    04:00 +10°C° 0.1 mm 4 mps 768 mmHg 81%
    05:00 +10°C° 0.1 mm 4 mps 768 mmHg 80%
    06:00 +11°C° 0.1 mm 4 mps 768 mmHg 79%
    07:00 +12°C° 0 mm 4 mps 768 mmHg 74%
    08:00 +14°C° 0 mm 4 mps 768 mmHg 70%
    09:00 +15°C° 0 mm 4 mps 768 mmHg 65%
    10:00 +17°C° 0 mm 3 mps 768 mmHg 64%
    11:00 +17°C° 0 mm 3 mps 768 mmHg 62%
    12:00 +18°C° 0 mm 3 mps 768 mmHg 60%
    13:00 +17°C° 0 mm 3 mps 768 mmHg 66%
    14:00 +17°C° 0 mm 3 mps 767 mmHg 72%
    15:00 +16°C° 0 mm 3 mps 767 mmHg 77%
    16:00 +16°C° 0 mm 2 mps 767 mmHg 78%
    17:00 +16°C° 0 mm 2 mps 767 mmHg 79%
    18:00 +16°C° 0 mm 2 mps 767 mmHg 79%
    19:00 +15°C° 0 mm 2 mps 767 mmHg 83%
    20:00 +14°C° 0 mm 2 mps 767 mmHg 86%
    21:00 +14°C° 0 mm 1 mps 767 mmHg 89%
    22:00 +13°C° 0 mm 2 mps 767 mmHg 90%
    23:00 +13°C° 0 mm 2 mps 767 mmHg 91%

    Day after tomorrow, 24 June, Sunday

    Time Temperature Precipitation Wind Pressure Humidity
    00:00 +12°C° 0 mm 2 mps 767 mmHg 92%
    01:00 +12°C° 0 mm 2 mps 767 mmHg 92%
    02:00 +12°C° 0 mm 2 mps 767 mmHg 91%
    03:00 +10°C° 0 mm 2 mps 767 mmHg 90%
    04:00 +12°C° 0 mm 2 mps 766 mmHg 85%
    05:00 +13°C° 0 mm 2 mps 766 mmHg 79%
    06:00 +14°C° 0 mm 2 mps 766 mmHg 74%
    07:00 +16°C° 0 mm 2 mps 766 mmHg 66%
    08:00 +18°C° 0 mm 2 mps 766 mmHg 58%
    09:00 +19°C° 0 mm 2 mps 766 mmHg 50%
    10:00 +20°C° 0 mm 2 mps 766 mmHg 49%
    11:00 +21°C° 0 mm 2 mps 766 mmHg 48%
    12:00 +23°C° 0 mm 2 mps 766 mmHg 46%
    13:00 +23°C° 0 mm 2 mps 766 mmHg 48%
    14:00 +23°C° 0 mm 2 mps 766 mmHg 50%
    15:00 +23°C° 0 mm 2 mps 766 mmHg 52%
    16:00 +22°C° 0 mm 3 mps 766 mmHg 56%
    17:00 +21°C° 0 mm 3 mps 766 mmHg 61%
    18:00 +20°C° 0 mm 3 mps 766 mmHg 65%
    19:00 +19°C° 0 mm 3 mps 766 mmHg 72%
    20:00 +17°C° 0 mm 3 mps 766 mmHg 78%
    21:00 +14°C° 0 mm 3 mps 767 mmHg 85%
    22:00 +13°C° 0 mm 3 mps 767 mmHg 85%
    23:00 +13°C° 0 mm 3 mps 767 mmHg 86%

    25 June, Monday

    Time Temperature Precipitation Wind Pressure Humidity
    00:00 +13°C° 0 mm 2 mps 767 mmHg 86%
    01:00 +13°C° 0 mm 2 mps 767 mmHg 83%
    02:00 +12°C° 0 mm 2 mps 767 mmHg 80%
    03:00 +12°C° 0 mm 2 mps 767 mmHg 78%
    04:00 +13°C° 0 mm 2 mps 767 mmHg 73%
    05:00 +15°C° 0 mm 2 mps 767 mmHg 68%
    06:00 +16°C° 0 mm 2 mps 767 mmHg 63%
    07:00 +19°C° 0 mm 1 mps 767 mmHg 58%
    08:00 +20°C° 0 mm 1 mps 767 mmHg 53%
    09:00 +22°C° 0 mm 1 mps 767 mmHg 49%
    10:00 +23°C° 0 mm 2 mps 767 mmHg 47%
    11:00 +24°C° 0 mm 2 mps 767 mmHg 46%
    12:00 +25°C° 0 mm 2 mps 767 mmHg 45%
    13:00 +25°C° 0 mm 2 mps 767 mmHg 47%
    14:00 +25°C° 0 mm 3 mps 767 mmHg 50%
    15:00 +25°C° 0 mm 3 mps 768 mmHg 52%
    16:00 +24°C° 0 mm 3 mps 768 mmHg 57%
    17:00 +22°C° 0 mm 4 mps 768 mmHg 61%
    18:00 +21°C° 0 mm 4 mps 768 mmHg 65%
    19:00 +19°C° 0 mm 4 mps 768 mmHg 71%
    20:00 +17°C° 0 mm 4 mps 768 mmHg 77%
    21:00 +14°C° 0 mm 3 mps 769 mmHg 83%
    22:00 +14°C° 0 mm 3 mps 768 mmHg 84%
    23:00 +14°C° 0 mm 3 mps 768 mmHg 86%

    26 June, Tuesday

    Time Temperature Precipitation Wind Pressure Humidity
    00:00 +13°C° 0 mm 3 mps 768 mmHg 88%
    01:00 +13°C° 0 mm 3 mps 768 mmHg 88%
    02:00 +13°C° 0 mm 3 mps 768 mmHg 88%
    03:00 +13°C° 0 mm 3 mps 768 mmHg 88%
    04:00 +14°C° 0 mm 3 mps 768 mmHg 83%
    05:00 +16°C° 0 mm 2 mps 768 mmHg 78%
    06:00 +17°C° 0 mm 2 mps 768 mmHg 73%
    07:00 +19°C° 0 mm 2 mps 768 mmHg 67%
    08:00 +21°C° 0 mm 2 mps 768 mmHg 61%
    09:00 +24°C° 0 mm 2 mps 768 mmHg 54%
    10:00 +24°C° 0 mm 2 mps 768 mmHg 54%
    11:00 +24°C° 0 mm 2 mps 768 mmHg 55%
    12:00 +24°C° 0 mm 3 mps 768 mmHg 55%
    13:00 +24°C° 0 mm 3 mps 768 mmHg 58%
    14:00 +23°C° 0 mm 4 mps 768 mmHg 61%
    15:00 +23°C° 0 mm 4 mps 768 mmHg 64%
    16:00 +22°C° 0 mm 4 mps 768 mmHg 68%
    17:00 +21°C° 0 mm 4 mps 768 mmHg 72%
    18:00 +21°C° 0 mm 4 mps 768 mmHg 76%
    19:00 +20°C° 0 mm 4 mps 768 mmHg 80%
    20:00 +18°C° 0 mm 4 mps 768 mmHg 83%
    21:00 +17°C° 0 mm 3 mps 768 mmHg 87%
    22:00 +17°C° 0 mm 3 mps 768 mmHg 84%
    23:00 +17°C° 0 mm 3 mps 768 mmHg 81%

    27 June, Wednesday

    Time Temperature Precipitation Wind Pressure Humidity
    00:00 +17°C° 0 mm 3 mps 768 mmHg 78%
    01:00 +17°C° 0 mm 3 mps 768 mmHg 77%
    02:00 +16°C° 0 mm 3 mps 768 mmHg 76%
    03:00 +16°C° 0 mm 3 mps 768 mmHg 75%
    04:00 +16°C° 0 mm 3 mps 768 mmHg 74%
    05:00 +17°C° 0 mm 3 mps 768 mmHg 73%
    06:00 +17°C° 0 mm 3 mps 768 mmHg 72%
    07:00 +19°C° 0 mm 3 mps 768 mmHg 68%
    08:00 +20°C° 0 mm 3 mps 768 mmHg 64%
    09:00 +21°C° 0 mm 4 mps 768 mmHg 60%
    10:00 +22°C° 0 mm 4 mps 767 mmHg 58%
    11:00 +22°C° 0 mm 4 mps 767 mmHg 56%
    12:00 +23°C° 0 mm 5 mps 767 mmHg 54%
    13:00 +23°C° 0 mm 5 mps 767 mmHg 54%
    14:00 +22°C° 0 mm 5 mps 767 mmHg 55%
    15:00 +22°C° 0 mm 5 mps 767 mmHg 55%
    16:00 +21°C° 0 mm 5 mps 767 mmHg 57%
    17:00 +20°C° 0 mm 5 mps 767 mmHg 60%
    18:00 +20°C° 0 mm 5 mps 766 mmHg 62%
    19:00 +17°C° 0 mm 5 mps 767 mmHg 68%
    20:00 +15°C° 0 mm 4 mps 767 mmHg 73%
    21:00 +14°C° 0 mm 4 mps 767 mmHg 79%
    22:00 +13°C° 0 mm 4 mps 767 mmHg 80%
    23:00 +13°C° 0 mm 4 mps 767 mmHg 81%
    Show more